Location: Atherton
(17.2661°S, 145.4859°E)
Time: 23:42:15
(UTC+10:00)

Transit 2A - Pass Details

Date: 24 June 2025
Orbit: 598 x 948 km, 66.7° (Epoch: 19 July)

Event Time Altitude Azimuth Distance (km) Brightness Sun altitude
Rises 20:56:07 0° 210° (SSW) 3,342 - -41.9°
Reaches altitude 10° 20:58:45 10° 215° (SW) 2,347 - -42.5°
Maximum altitude 21:03:52 48° 288° (WNW) 948 - -43.7°
Drops below altitude 10° 21:08:28 10° 2° (N) 2,108 - -44.7°
Sets 21:10:43 0° 8° (N) 2,969 - -45.3°
